Location: Ohmer (historical)
(38.0096°N, 122.0227°W)
Time: 13:06:12
(UTC+00:00)

Cosmos 1025 Rocket - Pass Details

Date: 14 February 2026
Orbit: 586 x 609 km, 82.5° (Epoch: 17 March)

Event Time Altitude Azimuth Distance (km) Brightness Sun altitude
Rises 14:09:57 0° 336° (NNW) 2,876 6.2 -10.3°
Reaches altitude 10° 14:12:36 10° 321° (NW) 1,965 5.2 -9.8°
Maximum altitude 14:15:51 21° 272° (W) 1,373 4.2 -9.1°
Drops below altitude 10° 14:19:06 10° 223° (SW) 1,946 5.3 -8.5°
Sets 14:21:42 0° 207° (SSW) 2,840 6.3 -8.0°
